Time,TemperatureF,DewpointF,PressureIn,WindDirection,WindDirectionDegrees,WindSpeedMPH,WindSpeedGustMPH,Humidity,HourlyPrecipIn,Conditions,Clouds,dailyrainin,SoftwareType,DateUTC
2013-03-06 00:08:00,21.8,17.0,30.32,NE,34,2.0,-999.0,80,-99.99,,,0.00,weatherlink.com 1.10,2013-03-06 06:08:00,
2013-03-06 00:23:00,22.1,17.0,30.32,NNE,32,0.0,-999.0,80,-99.99,,,0.00,weatherlink.com 1.10,2013-03-06 06:23:00,
2013-03-06 00:38:00,22.2,17.0,30.31,NNE,32,1.0,-999.0,80,-99.99,,,0.00,weatherlink.com 1.10,2013-03-06 06:38:00,
2013-03-06 00:53:00,22.5,17.0,30.33,NNE,32,0.0,-999.0,80,-99.99,,,0.00,weatherlink.com 1.10,2013-03-06 06:53:00,
2013-03-06 01:08:00,22.4,17.0,30.33,NNE,32,0.0,-999.0,80,-99.99,,,0.00,weatherlink.com 1.10,2013-03-06 07:08:00,
2013-03-06 01:23:00,22.4,17.0,30.33,WNW,296,0.0,-999.0,80,-99.99,,,0.00,weatherlink.com 1.10,2013-03-06 07:23:00,
2013-03-06 01:38:00,22.4,17.0,30.34,NW,308,1.0,-999.0,80,-99.99,,,0.00,weatherlink.com 1.10,2013-03-06 07:38:00,
2013-03-06 01:53:00,22.4,17.0,30.35,NNW,330,1.0,-999.0,81,-99.99,,,0.00,weatherlink.com 1.10,2013-03-06 07:53:00,
2013-03-06 02:08:00,22.7,18.0,30.35,NNW,333,2.0,-999.0,81,-99.99,,,0.00,weatherlink.com 1.10,2013-03-06 08:08:00,
2013-03-06 02:23:00,22.9,18.0,30.35,NNW,331,2.0,-999.0,82,-99.99,,,0.00,weatherlink.com 1.10,2013-03-06 08:23:00,
2013-03-06 02:38:00,22.9,18.0,30.36,NNW,345,2.0,-999.0,82,-99.99,,,0.00,weatherlink.com 1.10,2013-03-06 08:38:00,
2013-03-06 02:53:00,23.0,18.0,30.35,North,0,2.0,-999.0,82,-99.99,,,0.00,weatherlink.com 1.10,2013-03-06 08:53:00,
2013-03-06 03:08:00,23.0,18.0,30.35,North,11,2.0,-999.0,81,-99.99,,,0.00,weatherlink.com 1.10,2013-03-06 09:08:00,
2013-03-06 03:23:00,23.0,18.0,30.35,North,358,4.0,-999.0,80,-99.99,,,0.00,weatherlink.com 1.10,2013-03-06 09:23:00,
2013-03-06 03:38:00,22.9,17.0,30.35,NNW,340,3.0,-999.0,79,-99.99,,,0.00,weatherlink.com 1.10,2013-03-06 09:38:00,
2013-03-06 03:53:00,22.5,17.0,30.35,North,11,6.0,-999.0,79,-99.99,,,0.00,weatherlink.com 1.10,2013-03-06 09:53:00,
2013-03-06 04:08:00,21.6,16.0,30.36,North,352,0.0,-999.0,78,-99.99,,,0.00,weatherlink.com 1.10,2013-03-06 10:08:00,
2013-03-06 04:23:00,21.1,15.0,30.37,NNE,12,3.0,-999.0,78,-99.99,,,0.00,weatherlink.com 1.10,2013-03-06 10:23:00,
2013-03-06 04:38:00,21.3,15.0,30.37,NNE,25,2.0,-999.0,78,-99.99,,,0.00,weatherlink.com 1.10,2013-03-06 10:38:00,
2013-03-06 04:53:00,21.3,15.0,30.38,NNE,23,5.0,-999.0,77,-99.99,,,0.00,weatherlink.com 1.10,2013-03-06 10:53:00,
2013-03-06 05:08:00,20.6,15.0,30.38,North,0,5.0,-999.0,78,-99.99,,,0.00,weatherlink.com 1.10,2013-03-06 11:08:00,
2013-03-06 05:23:00,20.3,15.0,30.38,NNW,347,1.0,-999.0,79,-99.99,,,0.00,weatherlink.com 1.10,2013-03-06 11:23:00,
2013-03-06 05:38:00,20.5,15.0,30.39,NNE,20,0.0,-999.0,79,-99.99,,,0.00,weatherlink.com 1.10,2013-03-06 11:38:00,
2013-03-06 05:53:00,20.6,15.0,30.40,NNW,333,4.0,-999.0,79,-99.99,,,0.00,weatherlink.com 1.10,2013-03-06 11:53:00,
2013-03-06 06:08:00,21.0,15.0,30.40,North,354,1.0,-999.0,77,-99.99,,,0.00,weatherlink.com 1.10,2013-03-06 12:08:00,
2013-03-06 06:23:00,21.1,15.0,30.40,North,0,0.0,-999.0,77,-99.99,,,0.00,weatherlink.com 1.10,2013-03-06 12:23:00,
2013-03-06 06:38:00,21.1,15.0,30.40,North,349,1.0,-999.0,76,-99.99,,,0.00,weatherlink.com 1.10,2013-03-06 12:38:00,
2013-03-06 06:53:00,21.1,15.0,30.41,NNE,18,2.0,-999.0,77,-99.99,,,0.00,weatherlink.com 1.10,2013-03-06 12:53:00,
2013-03-06 07:08:00,21.3,15.0,30.42,NNE,22,1.0,-999.0,77,-99.99,,,0.00,weatherlink.com 1.10,2013-03-06 13:08:00,
2013-03-06 07:23:00,21.3,15.0,30.42,NE,36,2.0,-999.0,77,-99.99,,,0.00,weatherlink.com 1.10,2013-03-06 13:23:00,
2013-03-06 07:38:00,21.3,15.0,30.42,NNE,24,4.0,-999.0,77,-99.99,,,0.00,weatherlink.com 1.10,2013-03-06 13:38:00,
2013-03-06 07:53:00,21.4,15.0,30.43,NNE,25,2.0,-999.0,77,-99.99,,,0.00,weatherlink.com 1.10,2013-03-06 13:53:00,
2013-03-06 08:08:00,21.4,15.0,30.42,North,11,0.0,-999.0,77,-99.99,,,0.00,weatherlink.com 1.10,2013-03-06 14:08:00,
2013-03-06 08:23:00,21.4,15.0,30.43,NNE,20,1.0,-999.0,76,-99.99,,,0.00,weatherlink.com 1.10,2013-03-06 14:23:00,
2013-03-06 08:38:00,21.6,15.0,30.43,NNE,24,3.0,-999.0,76,-99.99,,,0.00,weatherlink.com 1.10,2013-03-06 14:38:00,
2013-03-06 08:53:00,21.9,15.0,30.43,NNE,29,1.0,-999.0,76,-99.99,,,0.00,weatherlink.com 1.10,2013-03-06 14:53:00,
2013-03-06 09:08:00,22.2,15.0,30.43,NW,324,2.0,-999.0,75,-99.99,,,0.00,weatherlink.com 1.10,2013-03-06 15:08:00,
2013-03-06 09:23:00,22.2,15.0,30.43,North,9,4.0,-999.0,74,-99.99,,,0.00,weatherlink.com 1.10,2013-03-06 15:23:00,
2013-03-06 09:38:00,22.2,15.0,30.43,NNE,15,6.0,-999.0,73,-99.99,,,0.00,weatherlink.com 1.10,2013-03-06 15:38:00,
2013-03-06 09:53:00,22.5,15.0,30.43,NNE,27,5.0,-999.0,73,-99.99,,,0.00,weatherlink.com 1.10,2013-03-06 15:53:00,
2013-03-06 10:08:00,23.3,16.0,30.43,NNE,21,3.0,-999.0,72,-99.99,,,0.00,weatherlink.com 1.10,2013-03-06 16:08:00,
2013-03-06 10:23:00,23.5,15.0,30.43,North,358,4.0,-999.0,70,-99.99,,,0.00,weatherlink.com 1.10,2013-03-06 16:23:00,
2013-03-06 10:38:00,23.8,15.0,30.42,North,353,3.0,-999.0,69,-99.99,,,0.00,weatherlink.com 1.10,2013-03-06 16:38:00,
2013-03-06 10:53:00,24.2,15.0,30.42,NNW,335,3.0,-999.0,69,-99.99,,,0.00,weatherlink.com 1.10,2013-03-06 16:53:00,
2013-03-06 11:08:00,24.5,15.0,30.42,North,349,3.0,-999.0,68,-99.99,,,0.00,weatherlink.com 1.10,2013-03-06 17:08:00,
2013-03-06 11:23:00,24.4,15.0,30.42,NNE,18,5.0,-999.0,68,-99.99,,,0.00,weatherlink.com 1.10,2013-03-06 17:23:00,
2013-03-06 11:38:00,25.3,16.0,30.42,NNE,22,4.0,-999.0,68,-99.99,,,0.00,weatherlink.com 1.10,2013-03-06 17:38:00,
2013-03-06 11:53:00,25.1,16.0,30.42,NE,34,3.0,-999.0,67,-99.99,,,0.00,weatherlink.com 1.10,2013-03-06 17:53:00,
2013-03-06 12:08:00,25.4,16.0,30.42,North,0,3.0,-999.0,67,-99.99,,,0.00,weatherlink.com 1.10,2013-03-06 18:08:00,
2013-03-06 12:23:00,25.4,15.0,30.41,NNW,339,0.0,-999.0,66,-99.99,,,0.01,weatherlink.com 1.10,2013-03-06 18:23:00,
2013-03-06 12:38:00,26.3,16.0,30.41,North,356,3.0,-999.0,65,-99.99,,,0.01,weatherlink.com 1.10,2013-03-06 18:38:00,
2013-03-06 12:53:00,26.6,16.0,30.41,West,279,1.0,-999.0,65,-99.99,,,0.01,weatherlink.com 1.10,2013-03-06 18:53:00,
2013-03-06 13:08:00,27.0,17.0,30.40,North,358,2.0,-999.0,65,-99.99,,,0.01,weatherlink.com 1.10,2013-03-06 19:08:00,
2013-03-06 13:23:00,26.3,16.0,30.39,North,2,3.0,-999.0,65,-99.99,,,0.01,weatherlink.com 1.10,2013-03-06 19:23:00,
2013-03-06 13:38:00,26.4,16.0,30.39,North,0,1.0,-999.0,65,-99.99,,,0.01,weatherlink.com 1.10,2013-03-06 19:38:00,
2013-03-06 13:53:00,26.9,17.0,30.38,WNW,283,0.0,-999.0,65,-99.99,,,0.01,weatherlink.com 1.10,2013-03-06 19:53:00,
2013-03-06 14:08:00,26.7,16.0,30.38,NE,41,3.0,-999.0,64,-99.99,,,0.02,weatherlink.com 1.10,2013-03-06 20:08:00,
2013-03-06 14:38:00,27.6,16.0,30.37,NNW,334,1.0,-999.0,63,-99.99,,,0.02,weatherlink.com 1.10,2013-03-06 20:38:00,
2013-03-06 14:53:00,27.0,16.0,30.37,NNE,12,1.0,-999.0,64,-99.99,,,0.03,weatherlink.com 1.10,2013-03-06 20:53:00,
2013-03-06 15:08:00,29.3,17.0,30.36,North,356,2.0,-999.0,60,-99.99,,,0.04,weatherlink.com 1.10,2013-03-06 21:08:00,
2013-03-06 15:23:00,28.5,17.0,30.36,North,354,0.0,-999.0,62,-99.99,,,0.05,weatherlink.com 1.10,2013-03-06 21:23:00,
2013-03-06 15:38:00,28.7,17.0,30.37,NE,35,3.0,-999.0,61,-99.99,,,0.06,weatherlink.com 1.10,2013-03-06 21:38:00,
2013-03-06 15:53:00,29.0,17.0,30.36,NW,304,4.0,-999.0,60,-99.99,,,0.06,weatherlink.com 1.10,2013-03-06 21:53:00,
2013-03-06 16:08:00,27.8,17.0,30.36,West,276,1.0,-999.0,63,-99.99,,,0.07,weatherlink.com 1.10,2013-03-06 22:08:00,
2013-03-06 16:23:00,27.0,16.0,30.37,West,272,4.0,-999.0,64,-99.99,,,0.07,weatherlink.com 1.10,2013-03-06 22:23:00,
2013-03-06 16:38:00,26.6,16.0,30.36,West,272,2.0,-999.0,65,-99.99,,,0.08,weatherlink.com 1.10,2013-03-06 22:38:00,
2013-03-06 16:53:00,26.3,16.0,30.37,WNW,283,0.0,-999.0,65,-99.99,,,0.08,weatherlink.com 1.10,2013-03-06 22:53:00,
2013-03-06 17:08:00,26.4,16.0,30.37,West,279,4.0,-999.0,66,-99.99,,,0.08,weatherlink.com 1.10,2013-03-06 23:08:00,
2013-03-06 17:23:00,26.1,16.0,30.37,NW,308,0.0,-999.0,66,-99.99,,,0.08,weatherlink.com 1.10,2013-03-06 23:23:00,
2013-03-06 17:38:00,25.3,16.0,30.37,West,261,3.0,-999.0,68,-99.99,,,0.08,weatherlink.com 1.10,2013-03-06 23:38:00,
2013-03-06 17:53:00,25.0,17.0,30.37,West,262,5.0,-999.0,70,-99.99,,,0.08,weatherlink.com 1.10,2013-03-06 23:53:00,
2013-03-06 18:08:00,24.5,16.0,30.37,WNW,297,3.0,-999.0,71,-99.99,,,0.08,weatherlink.com 1.10,2013-03-07 00:08:00,
2013-03-06 18:23:00,24.1,16.0,30.37,WNW,296,2.0,-999.0,71,-99.99,,,0.08,weatherlink.com 1.10,2013-03-07 00:23:00,
2013-03-06 18:38:00,23.8,16.0,30.37,WNW,294,2.0,-999.0,71,-99.99,,,0.08,weatherlink.com 1.10,2013-03-07 00:38:00,
2013-03-06 18:53:00,23.5,16.0,30.37,WNW,283,2.0,-999.0,72,-99.99,,,0.08,weatherlink.com 1.10,2013-03-07 00:53:00,
2013-03-06 19:08:00,23.2,16.0,30.37,WNW,283,2.0,-999.0,73,-99.99,,,0.08,weatherlink.com 1.10,2013-03-07 01:08:00,
2013-03-06 19:23:00,22.7,15.0,30.37,WNW,283,3.0,-999.0,73,-99.99,,,0.08,weatherlink.com 1.10,2013-03-07 01:23:00,
2013-03-06 19:38:00,22.2,15.0,30.37,WNW,283,3.0,-999.0,74,-99.99,,,0.08,weatherlink.com 1.10,2013-03-07 01:38:00,
2013-03-06 19:53:00,21.8,15.0,30.37,West,278,0.0,-999.0,74,-99.99,,,0.08,weatherlink.com 1.10,2013-03-07 01:53:00,
2013-03-06 20:08:00,21.3,15.0,30.37,West,278,1.0,-999.0,75,-99.99,,,0.08,weatherlink.com 1.10,2013-03-07 02:08:00,
2013-03-06 20:23:00,20.6,14.0,30.37,West,278,1.0,-999.0,75,-99.99,,,0.08,weatherlink.com 1.10,2013-03-07 02:23:00,
2013-03-06 20:38:00,20.0,14.0,30.37,West,278,0.0,-999.0,77,-99.99,,,0.08,weatherlink.com 1.10,2013-03-07 02:38:00,
2013-03-06 20:53:00,19.1,13.0,30.37,West,278,0.0,-999.0,78,-99.99,,,0.08,weatherlink.com 1.10,2013-03-07 02:53:00,
2013-03-06 21:08:00,18.8,13.0,30.37,West,278,1.0,-999.0,79,-99.99,,,0.08,weatherlink.com 1.10,2013-03-07 03:08:00,
2013-03-06 21:23:00,18.1,13.0,30.37,West,278,0.0,-999.0,80,-99.99,,,0.08,weatherlink.com 1.10,2013-03-07 03:23:00,
2013-03-06 21:38:00,17.7,13.0,30.37,West,278,1.0,-999.0,80,-99.99,,,0.08,weatherlink.com 1.10,2013-03-07 03:38:00,
2013-03-06 21:53:00,17.7,13.0,30.37,West,278,0.0,-999.0,81,-99.99,,,0.08,weatherlink.com 1.10,2013-03-07 03:53:00,
2013-03-06 22:08:00,16.1,11.0,30.38,West,278,0.0,-999.0,81,-99.99,,,0.08,weatherlink.com 1.10,2013-03-07 04:08:00,
2013-03-06 22:23:00,15.6,11.0,30.38,West,278,0.0,-999.0,83,-99.99,,,0.08,weatherlink.com 1.10,2013-03-07 04:23:00,
2013-03-06 22:38:00,14.9,11.0,30.38,West,278,0.0,-999.0,83,-99.99,,,0.08,weatherlink.com 1.10,2013-03-07 04:38:00,
2013-03-06 22:54:00,15.2,12.0,30.38,West,278,0.0,-999.0,86,-99.99,,,0.08,weatherlink.com 1.10,2013-03-07 04:54:00,
2013-03-06 23:09:00,16.5,13.0,30.39,West,278,2.0,-999.0,86,-99.99,,,0.08,weatherlink.com 1.10,2013-03-07 05:09:00,
2013-03-06 23:24:00,16.4,13.0,30.39,West,278,1.0,-999.0,85,-99.99,,,0.08,weatherlink.com 1.10,2013-03-07 05:24:00,
2013-03-06 23:38:00,15.1,11.0,30.39,West,278,0.0,-999.0,85,-99.99,,,0.08,weatherlink.com 1.10,2013-03-07 05:38:00,
2013-03-06 23:54:00,14.4,11.0,30.38,West,278,0.0,-999.0,86,-99.99,,,0.08,weatherlink.com 1.10,2013-03-07 05:54:00,